{"data":{"norad_id":67571,"epoch":"2026-05-25T02:35:51.967104Z","epoch_age_seconds":76380,"freshness":"FRESH","line1":"1 67571U 26016L   26145.10824036  .00017186  00000+0  53298-3 0  9995","line2":"2 67571  97.2878 205.4131 0000745  69.6894 290.4428 15.33474526 18573","mean_motion":15.33474526,"eccentricity":7.45e-5,"inclination_deg":97.2878,"raan_deg":205.4131,"arg_perigee_deg":69.6894,"mean_anomaly_deg":290.4428,"bstar":0.00053298,"rev_number":1857,"period_min":93.904396557286,"perigee_km":464.94547965661,"apogee_km":465.96517491338,"semimajor_km":6843.592327285,"source":"CELESTRAK","updated_at":"2026-05-25T13:38:21.615029Z"}}